Flag for Azerbaijan

Past Weather in Ganja, Azerbaijan — Yesterday and Last 2 Weeks

Now
73 °F

Passing clouds.


Feels Like: 77 °F
Forecast: 89 / 65 °F
Wind: 5 mph from East

Location: Gyanca Airport

Current Time: Jul 3, 2020 at 1:23:09 am

Latest Report: Jul 3, 2020 at 1:00 am


Visibility: N/A

Pressure: 29.95 "Hg

Humidity: 53%

Dew Point: 55 °F

Location of GanjaLocation

Past Weather in Ganja — Graph

°F

Ganja Temperature Yesterday

Maximum temperature yesterday: 88 °F (at 2:00 pm)
Minimum temperature yesterday: 66 °F (at 4:30 am)
Average temperature yesterday: 78 °F

High & Low Weather Summary for the Past Weeks

 TemperatureHumidityPressure
High99 °F (Jun 20, 4:30 pm)83% (Jun 28, 6:00 am)30.07 "Hg (Jun 28, 6:00 am)
Low61 °F (Jun 28, 6:00 am)11% (Jun 20, 5:00 pm)29.50 "Hg (Jun 20, 4:00 pm)
Average79 °F45%29.81 "Hg
* Reported Jun 18 12:00 am — Jul 3 12:00 am, Ganja. Weather by CustomWeather, © 2020

Note: Actual official high and low records may vary slightly from our data, if they occured in-between our weather recording intervals... More about our weather records

Ganja Weather History for the Previous 24 Hours

Scroll right to see more
 ConditionsComfort  
Time TempWeatherWind HumidityBarometerVisibility
12:00 am
Fri, Jul 3
75 °FPassing clouds.7 mph50%29.95 "HgN/A
11:30 pm
Thu, Jul 2
75 °FPassing clouds.12 mph50%29.95 "HgN/A
11:00 pm75 °FPassing clouds.14 mph50%29.92 "HgN/A
10:30 pm77 °FPassing clouds.14 mph51%29.92 "HgN/A
10:00 pm77 °FPassing clouds.14 mph51%29.92 "HgN/A
9:30 pm77 °FPassing clouds.14 mph51%29.95 "HgN/A
9:00 pm79 °FPassing clouds.16 mph45%29.92 "HgN/A
8:30 pm79 °FPassing clouds.14 mph42%29.92 "HgN/A
8:00 pm81 °FPassing clouds.16 mph39%29.92 "HgN/A
7:30 pm84 °FPassing clouds.16 mph33%29.92 "HgN/A
7:00 pm84 °FPassing clouds.18 mph33%29.92 "HgN/A
6:30 pm86 °FPassing clouds.23 mph33%29.89 "HgN/A
6:00 pm86 °FPassing clouds.23 mph35%29.89 "HgN/A
5:30 pm86 °FPassing clouds.23 mph35%29.89 "HgN/A
5:00 pm88 °FPassing clouds.21 mph31%29.89 "HgN/A
4:30 pm88 °FPassing clouds.21 mph31%29.89 "HgN/A
4:00 pm88 °FPassing clouds.21 mph31%29.92 "HgN/A
3:30 pm88 °FPassing clouds.21 mph33%29.92 "HgN/A
3:00 pm88 °FPassing clouds.21 mph33%29.92 "HgN/A
2:30 pm88 °FPassing clouds.18 mph33%29.92 "HgN/A
2:00 pm88 °FPassing clouds.18 mph35%29.92 "HgN/A
1:30 pm86 °FPassing clouds.18 mph35%29.95 "HgN/A
1:00 pm84 °FPassing clouds.14 mph37%29.95 "HgN/A
12:30 pm84 °FPassing clouds.16 mph40%29.95 "HgN/A
12:00 pm82 °FPassing clouds.7 mph45%29.95 "HgN/A
11:30 am82 °FPassing clouds.5 mph42%29.98 "HgN/A
11:00 am79 °FPassing clouds.7 mph45%29.98 "HgN/A
10:30 am79 °FPassing clouds.5 mph48%29.98 "HgN/A
10:00 am77 °FPassing clouds.9 mph51%29.98 "HgN/A
9:30 am75 °FPassing clouds.12 mph54%29.98 "HgN/A
9:00 am73 °FScattered clouds.12 mph53%29.98 "HgN/A
8:30 am73 °FScattered clouds.16 mph53%29.98 "HgN/A
8:00 am73 °FScattered clouds.16 mph53%29.98 "HgN/A
7:30 am72 °FScattered clouds.9 mph53%29.98 "HgN/A
7:00 am68 °FScattered clouds.9 mph60%29.95 "HgN/A
6:30 am68 °FScattered clouds.9 mph60%29.95 "HgN/A
6:00 am66 °FPassing clouds.9 mph64%29.95 "HgN/A
5:00 am66 °FPassing clouds.9 mph64%29.92 "HgN/A
4:30 am66 °FPassing clouds.7 mph64%29.92 "HgN/A
4:00 am68 °FPassing clouds.2 mph60%29.92 "HgN/A
3:30 am70 °FPassing clouds.7 mph53%29.92 "HgN/A
3:00 am70 °FPassing clouds.12 mph57%29.92 "HgN/A
2:30 am72 °FPassing clouds.9 mph53%29.89 "HgN/A
2:00 am73 °FPassing clouds.12 mph50%29.89 "HgN/A
1:30 am72 °FPassing clouds.9 mph53%29.89 "HgN/A
1:00 am73 °FPassing clouds.7 mph47%29.89 "HgN/A
Weather by CustomWeather, © 2020

See weather overview